Zurück zum Katalog

ONEWEB-0681

AktivKommunikationPO
NORAD 56717·PAYLOAD·🇬🇧 United Kingdom

Gestartet May 20, 2023 von Vandenberg Space Force Base

Loading…

Nächste Überflüge (nächste 24 Stunden)

TLE

AktuellSource: CelesTrak SupGP

Epoche: Sep 14, 2026, 15:40 UTC

1 56717C 23068H   26257.65326803 -.00001181  00000+0 -28845-2 0  2578
2 56717  87.9280 226.1737 0002959  91.4779 326.4208 13.21300798    12

Verfolge ONEWEB-0681 in Echtzeit mit AllMySat

Download on the App Store